| time (UTC) | temp F | wind direction | speed MPH | gust MPH | rain 1hr in | rain 24hr in | rain mn in | humidity % | barometer mb |
| 20260507040003 | 60 | 178 | 1.0 | 4.0 | 0.00 | 0.00 | 0.00 | 33 | 1019.5 |
| 20260507035001 | 60 | 178 | 1.0 | 4.0 | 0.00 | 0.00 | 0.00 | 32 | 1019.4 |
| 20260507034003 | 61 | 178 | 1.0 | 3.0 | 0.00 | 0.00 | 0.00 | 31 | 1019.2 |
| 20260507033004 | 62 | 178 | 1.0 | 4.0 | 0.00 | 0.00 | 0.00 | 31 | 1018.9 |
| 20260507032003 | 62 | 178 | 3.0 | 6.0 | 0.00 | 0.00 | 0.00 | 31 | 1018.7 |
| 20260507030003 | 63 | 178 | 3.0 | 8.0 | 0.00 | 0.00 | 0.00 | 30 | 1018.4 |
| 20260507025003 | 64 | 178 | 5.0 | 9.0 | 0.00 | 0.00 | 0.00 | 29 | 1018.1 |
| 20260507024003 | 64 | 178 | 4.0 | 9.0 | 0.00 | 0.00 | 0.00 | 29 | 1018.0 |
| 20260507023003 | 65 | 178 | 5.0 | 10.0 | 0.00 | 0.00 | 0.00 | 29 | 1018.0 |
| 20260507022003 | 65 | 178 | 5.0 | 9.0 | 0.00 | 0.00 | 0.00 | 28 | 1017.9 |
| 20260507020004 | 67 | 178 | 8.0 | 13.0 | 0.00 | 0.00 | 0.00 | 27 | 1017.8 |
| 20260507015001 | 67 | 178 | 8.0 | 13.0 | 0.00 | 0.00 | 0.00 | 27 | 1017.8 |
| 20260507014002 | 68 | 178 | 9.0 | 17.0 | 0.00 | 0.00 | 0.00 | 27 | 1017.6 |
| 20260507013004 | 69 | 178 | 9.0 | 13.0 | 0.00 | 0.00 | 0.00 | 26 | 1017.6 |
| 20260507012001 | 70 | 178 | 8.0 | 16.0 | 0.00 | 0.00 | 0.00 | 26 | 1017.6 |
| 20260507011001 | 70 | 178 | 5.0 | 10.0 | 0.00 | 0.00 | 0.00 | 25 | 1017.5 |
| 20260507010005 | 72 | 178 | 5.0 | 11.0 | 0.00 | 0.00 | 0.00 | 24 | 1017.5 |
| 20260507005003 | 74 | 178 | 6.0 | 12.0 | 0.00 | 0.00 | 0.00 | 22 | 1017.2 |
| 20260507004004 | 74 | 178 | 7.0 | 17.0 | 0.00 | 0.00 | 0.00 | 21 | 1017.0 |
| 20260507003004 | 74 | 178 | 5.0 | 16.0 | 0.00 | 0.00 | 0.00 | 21 | 1016.8 |
| 20260507001003 | 74 | 178 | 6.0 | 15.0 | 0.00 | 0.00 | 0.00 | 20 | 1016.6 |
| 20260507000005 | 74 | 178 | 7.0 | 18.0 | 0.00 | 0.00 | 0.00 | 21 | 1016.5 |
| 20260506235003 | 74 | 178 | 5.0 | 12.0 | 0.00 | 0.00 | 0.00 | 20 | 1016.5 |
| 20260506234003 | 73 | 178 | 2.0 | 8.0 | 0.00 | 0.00 | 0.00 | 21 | 1016.6 |
| 20260506233003 | 74 | 178 | 5.0 | 12.0 | 0.00 | 0.00 | 0.00 | 20 | 1016.6 |
| 20260506232004 | 74 | 178 | 5.0 | 15.0 | 0.00 | 0.00 | 0.00 | 20 | 1016.6 |
| 20260506230004 | 75 | 178 | 3.0 | 9.0 | 0.00 | 0.00 | 0.00 | 21 | 1016.8 |
| 20260506225002 | 74 | 178 | 4.0 | 12.0 | 0.00 | 0.00 | 0.00 | 21 | 1016.9 |
| 20260506224004 | 74 | 178 | 2.0 | 10.0 | 0.00 | 0.00 | 0.00 | 21 | 1017.0 |
| 20260506223003 | 73 | 178 | 3.0 | 13.0 | 0.00 | 0.00 | 0.00 | 21 | 1017.0 |
| 20260506222003 | 73 | 178 | 3.0 | 11.0 | 0.00 | 0.00 | 0.00 | 21 | 1017.2 |
| 20260506221004 | 72 | 178 | 3.0 | 13.0 | 0.00 | 0.00 | 0.00 | 22 | 1017.4 |
| 20260506220004 | 71 | 178 | 5.0 | 17.0 | 0.00 | 0.00 | 0.00 | 22 | 1017.6 |
| 20260506215003 | 70 | 178 | 3.0 | 10.0 | 0.00 | 0.00 | 0.00 | 23 | 1017.7 |
| 20260506214002 | 72 | 178 | 4.0 | 12.0 | 0.00 | 0.00 | 0.00 | 22 | 1018.0 |
| 20260506213004 | 73 | 178 | 3.0 | 10.0 | 0.00 | 0.00 | 0.00 | 21 | 1018.0 |
| 20260506212003 | 74 | 178 | 4.0 | 10.0 | 0.00 | 0.00 | 0.00 | 21 | 1018.1 |
| 20260506210004 | 74 | 178 | 7.0 | 14.0 | 0.00 | 0.00 | 0.00 | 21 | 1018.1 |
| 20260506205003 | 73 | 178 | 4.0 | 14.0 | 0.00 | 0.00 | 0.00 | 22 | 1018.3 |
| 20260506204002 | 72 | 178 | 3.0 | 11.0 | 0.00 | 0.00 | 0.00 | 22 | 1018.3 |
| 20260506202003 | 71 | 178 | 1.0 | 4.0 | 0.00 | 0.00 | 0.00 | 23 | 1018.5 |
| 20260506200004 | 69 | 178 | 5.0 | 14.0 | 0.00 | 0.00 | 0.00 | 24 | 1018.7 |
| 20260506195002 | 69 | 178 | 5.0 | 13.0 | 0.00 | 0.00 | 0.00 | 24 | 1018.8 |
| 20260506192002 | 69 | 178 | 2.0 | 8.0 | 0.00 | 0.00 | 0.00 | 25 | 1018.9 |
| 20260506191001 | 68 | 178 | 5.0 | 16.0 | 0.00 | 0.00 | 0.00 | 24 | 1019.1 |
| 20260506190005 | 68 | 178 | 4.0 | 10.0 | 0.00 | 0.00 | 0.00 | 24 | 1019.1 |
| 20260506185004 | 67 | 178 | 3.0 | 12.0 | 0.00 | 0.00 | 0.00 | 26 | 1019.1 |
| 20260506183002 | 67 | 178 | 2.0 | 8.0 | 0.00 | 0.00 | 0.00 | 26 | 1019.3 |
| 20260506182003 | 65 | 178 | 5.0 | 14.0 | 0.00 | 0.00 | 0.00 | 26 | 1019.5 |
| 20260506181003 | 64 | 178 | 3.0 | 12.0 | 0.00 | 0.00 | 0.00 | 27 | 1019.4 |
| 20260506180005 | 63 | 178 | 2.0 | 11.0 | 0.00 | 0.00 | 0.00 | 27 | 1019.3 |
| 20260506175002 | 62 | 178 | 2.0 | 8.0 | 0.00 | 0.00 | 0.00 | 29 | 1019.4 |
| 20260506173002 | 61 | 178 | 2.0 | 10.0 | 0.00 | 0.00 | 0.00 | 30 | 1019.4 |
| 20260506172002 | 62 | 178 | 2.0 | 10.0 | 0.00 | 0.00 | 0.00 | 30 | 1019.4 |
| 20260506171026 | 61 | 178 | 3.0 | 9.0 | 0.00 | 0.00 | 0.00 | 31 | 1019.3 |
| 20260506170001 | 60 | 178 | 2.0 | 8.0 | 0.00 | 0.00 | 0.00 | 32 | 1019.2 |
| 20260506165002 | 59 | 178 | 1.0 | 4.0 | 0.00 | 0.00 | 0.00 | 32 | 1019.3 |
| 20260506164003 | 58 | 178 | 2.0 | 8.0 | 0.00 | 0.00 | 0.00 | 33 | 1019.1 |
| 20260506163001 | 58 | 178 | 2.0 | 8.0 | 0.00 | 0.00 | 0.00 | 33 | 1019.1 |
| 20260506162001 | 57 | 178 | 1.0 | 6.0 | 0.00 | 0.00 | 0.00 | 34 | 1019.0 |
| 20260506161002 | 57 | 178 | 2.0 | 6.0 | 0.00 | 0.00 | 0.00 | 35 | 1019.1 |
| 20260506160001 | 56 | 178 | 3.0 | 8.0 | 0.00 | 0.00 | 0.00 | 36 | 1018.9 |
| 20260506155001 | 55 | 178 | 2.0 | 5.0 | 0.00 | 0.00 | 0.00 | 38 | 1018.9 |
| 20260506154001 | 54 | 178 | 2.0 | 5.0 | 0.00 | 0.00 | 0.00 | 39 | 1018.8 |
| 20260506152003 | 54 | 178 | 2.0 | 5.0 | 0.00 | 0.00 | 0.00 | 41 | 1018.7 |
| 20260506151002 | 53 | 178 | 2.0 | 4.0 | 0.00 | 0.00 | 0.00 | 43 | 1018.7 |
| 20260506150002 | 52 | 178 | 2.0 | 6.0 | 0.00 | 0.00 | 0.00 | 43 | 1018.6 |
| 20260506145001 | 52 | 178 | 1.0 | 4.0 | 0.00 | 0.00 | 0.00 | 44 | 1018.5 |
| 20260506144002 | 51 | 178 | 1.0 | 3.0 | 0.00 | 0.00 | 0.00 | 45 | 1018.4 |
| 20260506143001 | 50 | 178 | 1.0 | 4.0 | 0.00 | 0.00 | 0.00 | 47 | 1018.3 |
| 20260506142001 | 48 | 178 | 2.0 | 4.0 | 0.00 | 0.00 | 0.00 | 50 | 1018.4 |
| 20260506135002 | 42 | 60 | 1.0 | 3.0 | 0.00 | 0.00 | 0.00 | 61 | 1017.9 |
| 20260506134003 | 41 | 178 | 1.0 | 3.0 | 0.00 | 0.00 | 0.00 | 62 | 1017.8 |
| 20260506133003 | 40 | 178 | 2.0 | 4.0 | 0.00 | 0.00 | 0.00 | 62 | 1017.9 |
| 20260506132002 | 39 | 65 | 2.0 | 4.0 | 0.00 | 0.00 | 0.00 | 62 | 1017.9 |
| 20260506125003 | 39 | 73 | 1.0 | 3.0 | 0.00 | 0.00 | 0.00 | 62 | 1017.5 |
| 20260506124002 | 39 | 65 | 1.0 | 4.0 | 0.00 | 0.00 | 0.00 | 63 | 1017.4 |
| 20260506122003 | 39 | 84 | 2.0 | 4.0 | 0.00 | 0.00 | 0.00 | 60 | 1017.3 |
| 20260506121002 | 39 | 81 | 2.0 | 4.0 | 0.00 | 0.00 | 0.00 | 60 | 1017.1 |
| 20260506120004 | 39 | 72 | 2.0 | 4.0 | 0.00 | 0.00 | 0.00 | 60 | 1017.1 |
| 20260506115001 | 39 | 80 | 2.0 | 4.0 | 0.00 | 0.00 | 0.00 | 60 | 1017.1 |
| 20260506114000 | 39 | 77 | 3.0 | 6.0 | 0.00 | 0.00 | 0.00 | 61 | 1017.1 |
| 20260506113001 | 39 | 79 | 2.0 | 4.0 | 0.00 | 0.00 | 0.00 | 61 | 1017.3 |
| 20260506112002 | 39 | 71 | 2.0 | 4.0 | 0.00 | 0.00 | 0.00 | 61 | 1017.2 |
| 20260506111000 | 39 | 83 | 2.0 | 4.0 | 0.00 | 0.00 | 0.00 | 60 | 1017.2 |
| 20260506110005 | 40 | 79 | 2.0 | 4.0 | 0.00 | 0.00 | 0.00 | 59 | 1017.0 |
| 20260506102002 | 40 | 108 | 4.0 | 7.0 | 0.00 | 0.00 | 0.00 | 57 | 1016.5 |
| 20260506101001 | 41 | 116 | 3.0 | 6.0 | 0.00 | 0.00 | 0.00 | 56 | 1016.6 |
| 20260506100004 | 41 | 96 | 2.0 | 3.0 | 0.00 | 0.00 | 0.00 | 56 | 1016.5 |
| 20260506094000 | 41 | 112 | 2.0 | 3.0 | 0.00 | 0.00 | 0.00 | 55 | 1016.4 |
| 20260506093002 | 41 | 84 | 2.0 | 4.0 | 0.00 | 0.00 | 0.00 | 55 | 1016.6 |
| 20260506092001 | 41 | 93 | 2.0 | 4.0 | 0.00 | 0.00 | 0.00 | 55 | 1016.4 |
| 20260506091001 | 42 | 85 | 1.0 | 4.0 | 0.00 | 0.00 | 0.00 | 54 | 1016.4 |
| 20260506083001 | 42 | 178 | 3.0 | 6.0 | 0.00 | 0.00 | 0.00 | 51 | 1016.4 |
| 20260506082001 | 42 | 178 | 2.0 | 5.0 | 0.00 | 0.00 | 0.00 | 52 | 1016.3 |
| 20260506081001 | 42 | 178 | 1.0 | 3.0 | 0.00 | 0.00 | 0.00 | 52 | 1016.3 |
| 20260506073001 | 43 | 119 | 2.0 | 4.0 | 0.00 | 0.00 | 0.00 | 49 | 1016.4 |
| 20260506072001 | 44 | 82 | 3.0 | 7.0 | 0.00 | 0.00 | 0.00 | 49 | 1016.5 |
| 20260506071001 | 44 | 88 | 2.0 | 3.0 | 0.00 | 0.00 | 0.00 | 49 | 1016.5 |
| 20260506062003 | 45 | 178 | 2.0 | 4.0 | 0.00 | 0.00 | 0.00 | 48 | 1016.3 |
| 20260506061001 | 45 | 178 | 2.0 | 4.0 | 0.00 | 0.00 | 0.00 | 47 | 1016.2 |
| 20260506051009 | 49 | 132 | 0.0 | 2.0 | 0.00 | 0.00 | 0.00 | 42 | 1016.1 |
| 20260506045005 | 50 | 178 | 0.0 | 2.0 | 0.00 | 0.00 | 0.00 | 42 | 1016.1 |
| 20260506044001 | 50 | 178 | 0.0 | 3.0 | 0.00 | 0.00 | 0.00 | 42 | 1015.8 |
| 20260506043004 | 50 | 178 | 1.0 | 3.0 | 0.00 | 0.00 | 0.00 | 42 | 1016.0 |
| 20260506042003 | 50 | 178 | 1.0 | 2.0 | 0.00 | 0.00 | 0.00 | 42 | 1015.8 |
| 20260506041002 | 50 | 178 | 2.0 | 3.0 | 0.00 | 0.00 | 0.00 | 42 | 1015.7 |